Weather in Il'inka

Russia / Astrakhan Oblast     46°21′57″N   48°38′06″E
temp.,
°C
wind,
m/s
gust,
m/s
humid.,
%
clouds,
%
prec.,
mm/h
press.,
hPa
HPBL,
m
5 august, thu
thu501:00+26w3639100 0.0 101188
04:00+26wsw2237100 0.0 101017
07:00+29nnw5104186 0.0 1011478
10:00+35nne672611 0.0 10111176
13:00+39nne642053 0.0 10112397
16:00+39n742013 0.0 10103182
19:00+29wsw6947100 0.9 1012201
22:00+26n485152 1.1 1011117
6 august, fri
fri601:00+26nne4103499 0.0 1011178
04:00+25nne48333 0.0 1012137
07:00+27nne48323 0.0 1012248
10:00+34ne54210 0.0 10121219
13:00+37ene43170 0.0 10112192
16:00+37ese55180 0.0 10102493
19:00+32ese56260 0.0 1010411
22:00+26e22420 0.0 101017
7 august, sat
sat701:00+26ne46380 0.0 101088
04:00+26ene512330 0.0 1010283
07:00+28ene612310 0.0 1010435
10:00+34ese89210 0.0 10101071
13:00+37ese88180 0.0 10101388
16:00+36e88190 0.0 10091097
19:00+32e610233 0.0 1009515
22:00+27ene513370 0.0 1009235
8 august, sun
sun801:00+28e615400 0.0 1009330
04:00+28e6144583 0.0 1009304
07:00+30ese6144943 0.0 1010417
10:00+37ese8122136 0.0 1010747
13:00+38se8112384 0.0 1010995
16:00+36ese892639 0.0 1009733
19:00+32se694049 0.0 1009346
22:00+27se356883 0.0 100968
9 august, mon
mon901:00+28s335210 0.0 100934
04:00+26sw224659 0.0 100911
07:00+28nw11415 0.0 100924
10:00+37ene32195 0.1 10091040
13:00+40se241644 0.0 10092255
16:00+38sse872486 0.0 1009848
19:00+33sse574212 0.0 1009334
22:00+27ssw366855 0.0 1010105